x

8555889 - Brandywine Shoal Light, De (brnd1) Weather Station

4:54pm - Tue 16th Oct 2018 All times are EDT. -4 hours from GMT.

  • Wind
    6mph, 8mph gusts
  • Air Temp 60°f
  • Sea Pressure 1020.1mb
  • 8555889 - Brandywine Shoal Light, De
  • 8555889 - Brandywine Shoal Light, De

More Historic Weather Station data

Upgrade to MSW Pro to gain access to the past 30 days of data for over 8000 Wavebouys and Weather Stations around the globe.

Join

Comparision Forecast

View Surf forecast
   
Tue 10/16 4:54pm 6 8 mph 1020.1mb 60f
4:48pm 6 9 mph 1020.2mb 60f
4:42pm 6 6 mph 1020.1mb 60f
4:36pm 5 6 mph 1020.1mb 60f
4:30pm 6 8 mph 1020.1mb 60f
4:24pm 6 10 mph 1020.2mb 60f
4:18pm 9 15 mph 1020.2mb 60f
4:12pm 5 8 mph 1020.3mb 60f
4:06pm 9 14 mph 1020.3mb 60f
4:00pm 11 15 mph 1020.2mb 60f
3:54pm 8 14 mph 1020.1mb 60f
3:48pm 6 13 mph 1020.3mb 60f
3:42pm 10 14 mph 1020.4mb 60f
3:36pm 6 14 mph 1020.4mb 60f
3:30pm 13 15 mph 1020.5mb 59f
3:24pm 8 16 mph 1020.5mb 59f
3:18pm 10 14 mph 1020.6mb 60f
3:12pm 9 13 mph 1020.6mb 60f
3:06pm 8 14 mph 1020.7mb 59f
3:00pm 8 13 mph 1020.7mb 59f
2:54pm 9 13 mph 1020.7mb 59f
2:48pm 8 11 mph 1020.8mb 59f
2:42pm 3 6 mph 1020.8mb 59f
2:36pm 2 8 mph 1021mb 58f
2:30pm 5 8 mph 1021.1mb 58f
2:24pm 7 11 mph 1021.2mb 57f
2:18pm 8 11 mph 1021.1mb 58f
2:12pm 7 9 mph 1020.9mb 57f
2:06pm 7 11 mph 1021.1mb 57f
2:00pm 7 11 mph 1021.4mb 58f
1:54pm 9 11 mph 1021.3mb 57f
1:48pm 7 10 mph 1021.4mb 57f
1:42pm 8 11 mph 1021.5mb 57f
1:36pm 7 11 mph 1021.5mb 57f
1:30pm 8 13 mph 1022mb 57f
1:24pm 5 8 mph 1021.9mb 57f
1:18pm 9 13 mph 1022mb 57f
1:12pm 11 16 mph 1022.1mb 57f
1:06pm 9 16 mph 1022.3mb 57f
1:00pm 11 15 mph 1022.4mb 56f
12:18pm 10 20 mph 1022.8mb 56f
12:12pm 11 18 mph 1022.9mb 56f
12:06pm 14 20 mph 1022.8mb 56f
12:00pm 15 22 mph 1023mb 56f
11:54am 17 22 mph 1022.9mb 56f
11:48am 16 22 mph 1022.9mb 56f
11:42am 17 21 mph 1022.9mb 56f
11:36am 13 22 mph 1023.1mb 56f
11:30am 16 21 mph 1023.1mb 56f
11:24am 16 21 mph 1023.1mb 56f
11:18am 16 21 mph 1022.8mb 55f
11:12am 16 21 mph 1022.9mb 56f
11:06am 21 26 mph 1023mb 56f
11:00am 20 26 mph 1023.1mb 56f
10:54am 21 28 mph 1023mb 56f
10:48am 23 29 mph 1023mb 56f
10:42am 23 26 mph 1022.9mb 56f
10:36am 23 26 mph 1022.9mb 56f
10:30am 21 25 mph 1022.9mb 56f
10:24am 21 30 mph 1023.2mb 56f
10:18am 24 30 mph 1023.3mb 56f
10:12am 23 28 mph 1023.2mb 56f
10:06am 21 26 mph 1023.3mb 56f
10:00am 20 24 mph 1023.2mb 56f
9:54am 21 24 mph 1023.2mb 56f
9:48am 22 28 mph 1023.1mb 56f
9:42am 24 28 mph 1022.9mb 56f
9:36am 25 29 mph 1023mb 56f
9:30am 25 26 mph 1022.8mb 57f
9:24am 21 25 mph 1023mb 57f
9:18am 20 25 mph 1022.8mb 57f
9:12am 22 25 mph 1022.9mb 57f
9:06am 21 25 mph 1022.9mb 57f
9:00am 23 28 mph 1022.6mb 57f
8:48am 23 29 mph 1022.5mb 58f
8:42am 23 26 mph 1022.3mb 58f
8:36am 22 30 mph 1022.4mb 58f
8:30am 28 32 mph 1022.1mb 58f
8:24am 25 33 mph 1022mb 58f
8:18am 30 37 mph 1021.7mb 58f
8:12am 29 32 mph 1021.8mb 58f
8:06am 28 33 mph 1021.4mb 58f
8:00am 25 31 mph 1021.5mb 58f
7:54am 28 33 mph 1021.5mb 59f
7:48am 28 33 mph 1021.1mb 59f
7:42am 28 34 mph 1021.2mb 59f
7:36am 31 36 mph 1021.1mb 59f
7:30am 26 34 mph 1020.9mb 59f
7:24am 32 38 mph 1020.8mb 59f
7:18am 28 36 mph 1020.7mb 59f
7:12am 28 33 mph 1020.7mb 59f
7:06am 31 37 mph 1020.9mb 60f
7:00am 30 36 mph 1020.7mb 60f
6:54am 28 36 mph 1020.5mb 60f
6:48am 26 33 mph 1020.2mb 60f
6:42am 26 33 mph 1020mb 60f
6:36am 30 34 mph 1020mb 60f
6:30am 31 38 mph 1020mb 60f
6:24am 29 37 mph 1019.9mb 61f
6:18am 29 37 mph 1019.8mb 61f
6:12am 29 39 mph 1019.8mb 61f
6:06am 29 33 mph 1019.7mb 61f
6:00am 28 32 mph 1019.5mb 61f
5:54am 29 33 mph 1019.6mb 61f
5:48am 30 34 mph 1019.6mb 62f
5:42am 31 37 mph 1019.5mb 62f
5:36am 25 34 mph 1019.4mb 62f
5:30am 26 34 mph 1019.4mb 62f
5:24am 24 34 mph 1019.3mb 62f
5:18am 28 33 mph 1019.2mb 62f
5:12am 26 31 mph 1019.1mb 62f
5:06am 28 32 mph 1019mb 62f
5:00am 29 37 mph 1018.9mb 62f
4:54am 31 34 mph 1018.7mb 62f
4:48am 31 40 mph 1018.7mb 63f
4:42am 31 37 mph 1018.6mb 63f
4:36am 31 37 mph 1018.6mb 63f
4:30am 26 33 mph 1018.5mb 63f
4:24am 28 33 mph 1018.4mb 64f
4:18am 29 34 mph 1018.3mb 64f
4:12am 29 39 mph 1018.2mb 64f
4:06am 34 40 mph 1018.1mb 64f
4:00am 29 36 mph 1018mb 64f
3:18am 30 33 mph 1017.6mb 65f
3:12am 29 33 mph 1017.8mb 64f
3:06am 26 31 mph 1017.9mb 64f
3:00am 25 29 mph 1018mb 65f
2:54am 23 30 mph 1018mb 64f
2:48am 25 30 mph 1017.9mb 65f
2:42am 28 32 mph 1017.9mb 65f
2:36am 21 28 mph 1017.9mb 65f
2:30am 26 31 mph 1017.9mb 64f
2:24am 29 33 mph 1017.7mb 63f
2:18am 23 30 mph 1017.8mb 65f
2:12am 30 34 mph 1017.8mb 65f
2:06am 26 32 mph 1017.3mb 67f
2:00am 28 31 mph 1017.2mb 67f
1:54am 17 22 mph 1017.1mb 66f
1:48am 20 29 mph 1017mb 66f
1:42am 24 32 mph 1016.5mb 66f
1:36am 24 32 mph 1016.4mb 67f
1:30am 22 31 mph 1016.2mb 67f
1:24am 24 29 mph 1015.4mb 74f
1:18am 25 29 mph 1014.9mb 74f
1:12am 26 30 mph 1014.6mb 74f
1:06am 28 32 mph 1014.5mb 75f
1:00am 28 30 mph 1014.6mb 75f
12:54am 29 31 mph 1014.5mb 75f
12:48am 29 32 mph 1014.5mb 75f
12:42am 29 32 mph 1014.4mb 75f
12:36am 28 32 mph 1014.4mb 75f
12:30am 28 33 mph 1014.4mb 75f
12:24am 30 34 mph 1014.2mb 75f
12:18am 30 33 mph 1014.2mb 75f
12:12am 30 33 mph 1014.2mb 75f
12:06am 29 32 mph 1014.2mb 75f
12:00am 29 33 mph 1014.3mb 75f
Mon 10/15 11:54pm 29 33 mph 1014.2mb 75f
11:48pm 29 32 mph 1014.2mb 75f
11:42pm 30 32 mph 1013.9mb 75f
11:36pm 29 32 mph 1014.2mb 75f
11:30pm 28 32 mph 1014.3mb 75f
11:24pm 28 31 mph 1014.3mb 75f
11:18pm 28 33 mph 1014.3mb 76f
11:12pm 28 30 mph 1014.5mb 75f
11:06pm 28 32 mph 1014.5mb 76f
11:00pm 28 30 mph 1014.5mb 76f
10:54pm 25 31 mph 1014.7mb 75f
10:48pm 26 30 mph 1014.8mb 76f
10:42pm 28 30 mph 1014.9mb 76f
10:36pm 28 30 mph 1014.9mb 76f
10:30pm 28 31 mph 1014.8mb 76f
10:24pm 26 30 mph 1014.6mb 76f
10:18pm 28 31 mph 1014.6mb 76f
10:12pm 28 30 mph 1014.7mb 76f
10:06pm 26 31 mph 1014.6mb 76f
10:00pm 28 31 mph 1014.6mb 76f
9:48pm 28 30 mph 1014.7mb 76f
9:42pm 28 31 mph 1014.8mb 76f
9:36pm 28 30 mph 1014.8mb 76f
9:30pm 26 30 mph 1014.8mb -
9:24pm 26 32 mph 1014.9mb 76f
9:18pm 28 33 mph 1014.9mb 76f
9:12pm 28 31 mph 1014.7mb 76f
9:06pm 25 30 mph 1014.7mb 75f
9:00pm 25 26 mph 1014.7mb 75f
7:48pm 24 26 mph 1014.3mb 75f
7:42pm 24 26 mph 1014.2mb 75f
7:36pm 24 26 mph 1014.1mb 75f
7:30pm 22 23 mph 1014.4mb 74f
7:24pm 20 22 mph 1014.7mb 74f
7:18pm 20 22 mph 1014.8mb 74f
7:12pm 18 20 mph 1015mb 74f
7:06pm 18 20 mph 1015.1mb 74f
7:00pm 17 20 mph 1015.2mb 74f
6:54pm 17 18 mph 1015.2mb 74f
6:48pm 16 17 mph 1015.3mb 74f
6:42pm 16 18 mph 1015.2mb 74f
6:36pm 16 17 mph 1015.2mb 74f
6:30pm 16 17 mph 1015.4mb 74f
6:24pm 16 18 mph 1015.5mb 74f
6:18pm 16 18 mph 1015.6mb 74f
6:12pm 17 20 mph 1015.4mb 74f
6:06pm 18 21 mph 1015.2mb 74f
6:00pm 18 21 mph 1015.3mb 74f
4:54pm 22 23 mph 1015.9mb 74f
4:48pm 21 22 mph 1016.2mb 74f
4:42pm 21 23 mph 1016.2mb 73f
4:36pm 21 23 mph 1016.3mb 73f
4:30pm 22 24 mph 1016.4mb 73f
4:24pm 22 23 mph 1016.4mb 73f
4:18pm 21 24 mph 1016.5mb 73f
4:12pm 22 23 mph 1016.5mb 73f
4:06pm 22 25 mph 1016.5mb 73f
4:00pm 24 26 mph 1016.4mb 73f
3:54pm 24 26 mph 1016.5mb 73f
3:48pm 24 26 mph 1016.6mb -
3:42pm 22 24 mph 1016.7mb 73f
3:36pm 20 24 mph 1016.7mb 73f
3:30pm 24 26 mph 1016.7mb 73f
3:24pm 23 28 mph 1016.7mb 73f
3:18pm 23 26 mph 1016.8mb 73f
3:12pm 20 23 mph 1016.9mb 73f
3:06pm 22 24 mph 1017mb 73f
3:00pm 23 25 mph 1016.8mb 74f
2:54pm 22 25 mph 1016.7mb 74f
2:48pm 24 30 mph 1016.7mb 74f
2:42pm 28 33 mph 1016.8mb 74f
2:36pm 29 31 mph 1016.9mb 74f
2:30pm 28 30 mph 1016.9mb 74f
2:24pm 22 23 mph 1017mb 73f
2:18pm 23 29 mph 1017.1mb 73f
2:12pm 26 29 mph 1017mb 73f
2:06pm 25 29 mph 1017mb 73f
2:00pm 24 28 mph 1017.1mb 73f
1:54pm 24 26 mph 1017.1mb 73f
1:48pm 23 26 mph 1017.3mb 73f
1:42pm 22 25 mph 1017.4mb 72f
1:36pm 24 26 mph 1017.6mb 72f
1:30pm 23 28 mph 1017.7mb 71f
1:24pm 26 29 mph 1017.7mb 71f
1:18pm 25 29 mph 1017.6mb 71f
1:12pm 26 30 mph 1017.5mb 71f
1:06pm 29 30 mph 1017.7mb 70f
1:00pm 25 30 mph 1017.7mb 70f
12:54pm 24 26 mph 1017.9mb 70f
12:48pm 24 28 mph 1018mb 70f
12:42pm 24 28 mph 1018.3mb 69f
12:36pm 26 29 mph 1018.2mb 69f
12:30pm 26 29 mph 1018.3mb 69f
12:24pm 25 28 mph 1018.5mb 69f
12:18pm 22 28 mph 1018.7mb 69f
12:12pm 22 28 mph 1018.8mb 68f
12:06pm 22 25 mph 1018.9mb 68f
12:00pm 22 24 mph 1018.9mb 68f
11:54am 23 24 mph 1019mb 68f
11:48am 22 24 mph 1019.2mb 67f
11:42am 23 25 mph 1019.5mb 67f
11:36am 23 25 mph 1019.6mb 67f
11:30am 21 24 mph 1019.6mb 67f
11:24am 22 25 mph 1019.5mb 67f
11:18am 24 25 mph 1019.7mb 67f
11:12am 24 29 mph 1019.8mb 67f
11:06am 25 29 mph 1019.7mb 67f
11:00am 26 29 mph 1019.6mb 67f
10:54am 28 30 mph 1019.8mb 66f
10:48am 26 30 mph 1019.9mb 67f
10:42am 28 32 mph 1019.9mb 67f
10:36am 26 31 mph 1020mb 67f
10:30am 26 30 mph 1019.9mb 66f
10:24am 25 30 mph 1020mb 66f
10:18am 23 29 mph 1020.2mb 66f
10:12am 26 29 mph 1020.1mb 65f
10:06am 26 29 mph 1020.2mb 65f
10:00am 26 29 mph 1020.2mb 65f
9:54am 24 29 mph 1020.3mb 65f
9:48am 26 29 mph 1020.3mb 65f
9:42am 23 26 mph 1020.5mb 65f